Location: Kerb�bon
(47.7970°N, 3.3487°W)
Time: 13:18:01
(UTC+00:00)

Cosmos 1898 Rocket - Pass Details

Date: 12 May 2021
Orbit: 753 x 784 km, 74.0° (Epoch: 18 June)

Event Time Altitude Azimuth Distance (km) Brightness Sun altitude
Exits shadow 22:10:32 34° 163° (SSE) 1,256 4.1 -18.6°
Maximum altitude 22:12:31 53° 106° (ESE) 952 3.7 -18.8°
Drops below altitude 10° 22:17:42 10° 31° (NNE) 2,349 6.4 -19.2°
Sets 22:20:09 0° 27° (NNE) 3,283 7.3 -19.4°
